Previsão horária em Almenara

Hoje, 18 Janeiro, Segunda-feira

Tempo Temperatura Precipitação Vento Pressão Humidade
00:00 +7°C° 0 mm 1 m/s 733 mmHg 47%
01:00 +7°C° 0 mm 1 m/s 733 mmHg 46%
02:00 +6°C° 0 mm 1 m/s 733 mmHg 45%
03:00 +6°C° 0 mm 1 m/s 732 mmHg 45%
04:00 +6°C° 0 mm 1 m/s 732 mmHg 45%
05:00 +6°C° 0 mm 1 m/s 732 mmHg 46%
06:00 +6°C° 0 mm 1 m/s 732 mmHg 50%
07:00 +7°C° 0 mm 1 m/s 733 mmHg 49%
08:00 +8°C° 0 mm 1 m/s 733 mmHg 48%
09:00 +9°C° 0 mm 1 m/s 733 mmHg 47%
10:00 +11°C° 0 mm 1 m/s 733 mmHg 42%
11:00 +13°C° 0 mm 1 m/s 734 mmHg 38%
12:00 +15°C° 0 mm 1 m/s 734 mmHg 33%
13:00 +16°C° 0 mm 1 m/s 733 mmHg 34%
14:00 +16°C° 0 mm 1 m/s 733 mmHg 34%
15:00 +18°C° 0 mm 1 m/s 732 mmHg 34%
16:00 +14°C° 0 mm 1 m/s 732 mmHg 41%
17:00 +12°C° 0 mm 1 m/s 732 mmHg 48%
18:00 +8°C° 0 mm 0 m/s 732 mmHg 55%
19:00 +8°C° 0 mm 0 m/s 732 mmHg 58%
20:00 +7°C° 0 mm 0 m/s 733 mmHg 61%
21:00 +7°C° 0 mm 0 m/s 733 mmHg 64%
22:00 +7°C° 0 mm 0 m/s 733 mmHg 66%
23:00 +6°C° 0 mm 0 m/s 733 mmHg 68%

Amanhã, 19 Janeiro, Terça-feira

Tempo Temperatura Precipitação Vento Pressão Humidade
00:00 +6°C° 0 mm 0 m/s 733 mmHg 70%
01:00 +6°C° 0 mm 0 m/s 733 mmHg 71%
02:00 +5°C° 0 mm 0 m/s 732 mmHg 73%
03:00 +5°C° 0 mm 0 m/s 732 mmHg 74%
04:00 +5°C° 0 mm 0 m/s 732 mmHg 74%
05:00 +4°C° 0 mm 0 m/s 732 mmHg 75%
06:00 +4°C° 0 mm 0 m/s 732 mmHg 75%
07:00 +6°C° 0 mm 0 m/s 732 mmHg 71%
08:00 +7°C° 0 mm 0 m/s 732 mmHg 66%
09:00 +9°C° 0 mm 1 m/s 732 mmHg 62%
10:00 +11°C° 0 mm 1 m/s 732 mmHg 56%
11:00 +13°C° 0 mm 1 m/s 732 mmHg 50%
12:00 +14°C° 0 mm 1 m/s 732 mmHg 44%
13:00 +14°C° 0 mm 1 m/s 731 mmHg 43%
14:00 +15°C° 0 mm 1 m/s 730 mmHg 43%
15:00 +15°C° 0 mm 2 m/s 730 mmHg 43%
16:00 +13°C° 0 mm 1 m/s 729 mmHg 53%
17:00 +10°C° 0 mm 1 m/s 729 mmHg 62%
18:00 +7°C° 0 mm 0 m/s 729 mmHg 72%
19:00 +7°C° 0 mm 0 m/s 729 mmHg 72%
20:00 +7°C° 0 mm 0 m/s 729 mmHg 73%
21:00 +7°C° 0 mm 1 m/s 729 mmHg 73%
22:00 +6°C° 0 mm 0 m/s 729 mmHg 74%
23:00 +6°C° 0 mm 0 m/s 728 mmHg 74%

Depois de amanhã, 20 Janeiro, Quarta-feira

Tempo Temperatura Precipitação Vento Pressão Humidade
00:00 +5°C° 0 mm 0 m/s 728 mmHg 75%
01:00 +5°C° 0 mm 0 m/s 727 mmHg 75%
02:00 +5°C° 0 mm 0 m/s 727 mmHg 75%
03:00 +6°C° 0 mm 1 m/s 726 mmHg 76%
04:00 +6°C° 0 mm 1 m/s 726 mmHg 76%
05:00 +6°C° 0 mm 1 m/s 725 mmHg 75%
06:00 +6°C° 0 mm 1 m/s 725 mmHg 75%
07:00 +7°C° 0 mm 1 m/s 725 mmHg 73%
08:00 +8°C° 0 mm 1 m/s 725 mmHg 70%
09:00 +8°C° 0 mm 2 m/s 725 mmHg 68%
10:00 +8°C° 0.6 mm 2 m/s 725 mmHg 71%
11:00 +9°C° 0.6 mm 3 m/s 724 mmHg 73%
12:00 +9°C° 0.6 mm 3 m/s 724 mmHg 76%
13:00 +10°C° 0.2 mm 3 m/s 723 mmHg 78%
14:00 +10°C° 0.2 mm 3 m/s 723 mmHg 79%
15:00 +11°C° 0.2 mm 3 m/s 722 mmHg 80%
16:00 +11°C° 0.3 mm 4 m/s 722 mmHg 83%
17:00 +11°C° 0.3 mm 4 m/s 722 mmHg 86%
18:00 +10°C° 0.3 mm 4 m/s 723 mmHg 88%
19:00 +10°C° 0.4 mm 4 m/s 723 mmHg 89%
20:00 +8°C° 0.4 mm 4 m/s 724 mmHg 89%
21:00 +8°C° 0.4 mm 5 m/s 724 mmHg 90%
22:00 +7°C° 0.1 mm 4 m/s 724 mmHg 90%
23:00 +7°C° 0.1 mm 4 m/s 725 mmHg 91%

21 Janeiro, Quinta-feira

Tempo Temperatura Precipitação Vento Pressão Humidade
00:00 +8°C° 0.1 mm 3 m/s 725 mmHg 91%
01:00 +8°C° 0.1 mm 3 m/s 725 mmHg 92%
02:00 +8°C° 0.1 mm 3 m/s 725 mmHg 92%
03:00 +9°C° 0.1 mm 3 m/s 726 mmHg 92%
04:00 +9°C° 0 mm 3 m/s 726 mmHg 93%
05:00 +9°C° 0 mm 3 m/s 726 mmHg 93%
06:00 +8°C° 0 mm 4 m/s 726 mmHg 93%
07:00 +8°C° 0.1 mm 4 m/s 726 mmHg 92%
08:00 +10°C° 0.1 mm 4 m/s 727 mmHg 90%
09:00 +10°C° 0.1 mm 4 m/s 727 mmHg 89%
10:00 +10°C° 0.1 mm 5 m/s 727 mmHg 84%
11:00 +11°C° 0.1 mm 6 m/s 727 mmHg 80%
12:00 +13°C° 0.1 mm 6 m/s 727 mmHg 75%
13:00 +13°C° 0.1 mm 6 m/s 727 mmHg 77%
14:00 +13°C° 0.1 mm 6 m/s 726 mmHg 79%
15:00 +13°C° 0.1 mm 6 m/s 725 mmHg 82%
16:00 +13°C° 0.1 mm 6 m/s 725 mmHg 83%
17:00 +11°C° 0.1 mm 6 m/s 725 mmHg 84%
18:00 +11°C° 0.1 mm 6 m/s 725 mmHg 85%
19:00 +11°C° 0.6 mm 6 m/s 725 mmHg 87%
20:00 +11°C° 0.6 mm 6 m/s 725 mmHg 89%
21:00 +10°C° 0.6 mm 5 m/s 726 mmHg 90%
22:00 +10°C° 0.4 mm 5 m/s 726 mmHg 92%
23:00 +11°C° 0.4 mm 4 m/s 726 mmHg 93%

22 Janeiro, Sexta-feira

Tempo Temperatura Precipitação Vento Pressão Humidade
00:00 +11°C° 0.4 mm 4 m/s 726 mmHg 95%
01:00 +11°C° 0.2 mm 4 m/s 726 mmHg 94%
02:00 +10°C° 0.2 mm 4 m/s 726 mmHg 94%
03:00 +10°C° 0.2 mm 3 m/s 726 mmHg 94%
04:00 +9°C° 0.1 mm 3 m/s 726 mmHg 94%
05:00 +9°C° 0.1 mm 3 m/s 726 mmHg 94%
06:00 +9°C° 0.1 mm 3 m/s 726 mmHg 93%
07:00 +10°C° 0 mm 4 m/s 726 mmHg 91%
08:00 +10°C° 0 mm 4 m/s 726 mmHg 89%
09:00 +9°C° 0 mm 5 m/s 726 mmHg 86%
10:00 +10°C° 0.3 mm 6 m/s 726 mmHg 85%
11:00 +11°C° 0.3 mm 8 m/s 725 mmHg 84%
12:00 +11°C° 0.3 mm 9 m/s 725 mmHg 83%
13:00 +11°C° 0.8 mm 8 m/s 725 mmHg 81%
14:00 +10°C° 0.8 mm 7 m/s 725 mmHg 78%
15:00 +9°C° 0.8 mm 5 m/s 725 mmHg 75%
16:00 +9°C° 0 mm 5 m/s 726 mmHg 77%
17:00 +8°C° 0 mm 4 m/s 726 mmHg 79%
18:00 +8°C° 0 mm 4 m/s 727 mmHg 80%
19:00 +8°C° 0 mm 3 m/s 728 mmHg 82%
20:00 +7°C° 0 mm 3 m/s 728 mmHg 84%
21:00 +7°C° 0 mm 3 m/s 729 mmHg 86%
22:00 +5°C° 0 mm 3 m/s 729 mmHg 88%
23:00 +6°C° 0 mm 2 m/s 729 mmHg 89%

23 Janeiro, Sábado

Tempo Temperatura Precipitação Vento Pressão Humidade
00:00 +5°C° 0 mm 2 m/s 729 mmHg 90%
01:00 +5°C° 0 mm 2 m/s 730 mmHg 91%
02:00 +5°C° 0 mm 2 m/s 730 mmHg 91%
03:00 +4°C° 0 mm 2 m/s 730 mmHg 91%
04:00 +5°C° 0 mm 1 m/s 730 mmHg 92%
05:00 +5°C° 0 mm 1 m/s 730 mmHg 92%
06:00 +4°C° 0 mm 1 m/s 730 mmHg 92%
07:00 +5°C° 0 mm 1 m/s 730 mmHg 89%
08:00 +6°C° 0 mm 1 m/s 731 mmHg 86%
09:00 +7°C° 0 mm 1 m/s 731 mmHg 82%
10:00 +8°C° 0 mm 2 m/s 731 mmHg 75%
11:00 +9°C° 0 mm 2 m/s 731 mmHg 69%
12:00 +10°C° 0 mm 3 m/s 730 mmHg 62%
13:00 +11°C° 0 mm 3 m/s 730 mmHg 62%
14:00 +11°C° 0 mm 3 m/s 730 mmHg 62%
15:00 +11°C° 0 mm 3 m/s 729 mmHg 62%
16:00 +10°C° 0 mm 3 m/s 729 mmHg 70%
17:00 +9°C° 0 mm 2 m/s 729 mmHg 77%
18:00 +7°C° 0 mm 2 m/s 729 mmHg 85%
19:00 +7°C° 0 mm 2 m/s 729 mmHg 85%
20:00 +7°C° 0 mm 2 m/s 730 mmHg 84%
21:00 +9°C° 0 mm 1 m/s 730 mmHg 84%
22:00 +9°C° 0 mm 1 m/s 730 mmHg 84%
23:00 +8°C° 0 mm 1 m/s 730 mmHg 83%
Mostrar mais

Necessitamos do seu Consentimento

A Meteoprog e os seus Fornecedores de Serviços podem armazenar e aceder a dados pessoais como cookies, identificadores do dispositivo ou outras tecnologias semelhantes existentes no seu dispositivo e processar estes dados para personalizar conteúdos e anúncios, assim como funcionalidades nas redes sociais e análise de tráfego.

  • Armazenar e/ou aceder a informações no seu dispositivo

    Os cookies, identificadores do dispositivo ou outras informações podem ser armazenados ou acedidos no seu dispositivo, para os fins acima indicados.

  • Anúncios e conteúdos personalizados, medição de anúncios e conteúdos, dados sobre o público-alvo e desenvolvimento de produtos

    Os anúncios e os conteúdos podem ser personalizados com base num perfil. Podem ser adicionados dados adicionais para uma maior personalização dos anúncios e dos conteúdos. A eficácia dos anúncios e dos conteúdos pode ser medida. Podem ser obtidas informações sobre o público que visualizou os anúncios e os conteúdos. Estes dados podem ser usados para desenvolver ou melhorar sistemas, softwares ou a experiência do utilizador.

Ao clicar em "Eu concordo”, permitirá o uso de cookies, identificadores do dispositivo e web beacons mencionados ou outras tecnologias semelhantes. As configurações do navegador do seu dispositivo podem ser alteradas.

Para certos fins, podem ser invocados interesses legítimos ao invés de consentimento. Pode ler mais informação sobre este assunto na nossa Política de Privacidade e Cookies.